Weather History for KJOT - December, 2013

Change the Weather History Date:

Wednesday, December 18, 2013

  Actual Average (KLOT) Record (KLOT)
Temperature  
Mean Temperature 22 °F 26 °F  
Max Temperature 33 °F 34 °F 55 °F (2002)
Min Temperature 10 °F 19 °F -4 °F (2000)
Degree Days  
Heating Degree Days 44 26  
Month to date heating degree days 632  
Since 1 July heating degree days 1851  
Cooling Degree Days 0 0  
Month to date cooling degree days 0  
Year to date cooling degree days 862  
Moisture  
Dew Point 16 °F    
Average Humidity 71    
Maximum Humidity 90    
Minimum Humidity 45    
Precipitation  
Precipitation 0.03 in 0.07 in 1.02 in (2002)
Month to date precipitation 1.31  
Year to date precipitation 39.13  
Snow  
Snow 0.00 in 0.30 in - ()
Month to date snowfall 4.8  
Since 1 July snowfall 5.7  
Snow Depth -    
Sea Level Pressure  
Sea Level Pressure 30.03 in    
Wind  
Wind Speed 6 mph (SSW)    
Max Wind Speed 15 mph    
Max Gust Speed 23 mph    
Visibility 10 miles    
Events      
T = Trace of Precipitation, MM = Missing Value Source: NWS Daily Summary

Daily Weather History Graph

Daily Weather History Graph

Search for Another Location

Airport or City:

Trip Planner

Search our weather history database for the weather conditions in past years. The results will help you decide how hot, cold, wet, or windy it might be!

Date:

Astronomy

Dec. 18, 2013 Rise Set
Actual Time 7:14 AM CST 4:24 PM CST
Civil Twilight 6:42 AM CST 4:56 PM CST
Nautical Twilight 6:07 AM CST 5:31 PM CST
Astronomical Twilight 5:34 AM CST 6:04 PM CST
Moon 5:57 PM CST (12/18) 7:52 AM CST (12/18)
Length of Visible Light 10h 13m
Length of Day
9h 10m
Full, 98% of the Moon is Illuminated
Dec 18
Full
Dec 25
Last Quarter
Jan 1
New
Jan 7
First Quarter
Jan 15
Full

Hourly Weather History & Observations

Time (CST) Temp. Windchill Dew Point Humidity Pressure Visibility Wind Dir Wind Speed Gust Speed Precip Events Conditions
12:15 AM 22.8 °F 13.6 °F 13.5 °F 67% 30.13 in 10.0 mi West 8.1 mph - N/A   Clear
12:35 AM 20.8 °F 13.2 °F 13.1 °F 72% 30.12 in 10.0 mi West 5.8 mph - N/A   Clear
12:55 AM 19.8 °F 10.8 °F 13.1 °F 75% 30.13 in 10.0 mi West 6.9 mph - N/A   Clear
1:15 AM 18.5 °F 7.5 °F 12.7 °F 78% 30.13 in 10.0 mi West 9.2 mph - N/A   Clear
1:35 AM 17.4 °F 10.4 °F 12.0 °F 79% 30.14 in 10.0 mi West 4.6 mph - N/A   Clear
1:55 AM 16.5 °F 8.1 °F 11.3 °F 80% 30.14 in 10.0 mi West 5.8 mph - N/A   Clear
2:15 AM 15.6 °F 10.0 °F 10.6 °F 80% 30.14 in 10.0 mi West 3.5 mph - N/A   Clear
2:35 AM 14.9 °F 9.2 °F 10.4 °F 82% 30.15 in 10.0 mi West 3.5 mph - N/A   Clear
2:55 AM 14.7 °F - 10.2 °F 82% 30.14 in 10.0 mi Calm Calm - N/A   Clear
3:15 AM 14.4 °F 6.9 °F 10.0 °F 83% 30.15 in 10.0 mi West 4.6 mph - N/A   Clear
3:35 AM 14.4 °F - 9.9 °F 82% 30.15 in 10.0 mi Calm Calm - N/A   Clear
3:55 AM 14.0 °F - 9.5 °F 82% 30.16 in 10.0 mi Calm Calm - N/A   Clear
4:15 AM 14.0 °F 5.1 °F 9.5 °F 82% 30.16 in 10.0 mi West 5.8 mph - N/A   Clear
4:35 AM 13.6 °F - 9.3 °F 83% 30.16 in 10.0 mi Calm Calm - N/A   Clear
4:55 AM 12.9 °F 5.2 °F 8.6 °F 83% 30.17 in 10.0 mi West 4.6 mph - N/A   Clear
5:15 AM 12.7 °F 5.0 °F 8.6 °F 84% 30.17 in 10.0 mi WSW 4.6 mph - N/A   Clear
5:35 AM 12.4 °F 4.6 °F 8.6 °F 85% 30.16 in 10.0 mi WSW 4.6 mph - N/A   Clear
5:55 AM 11.8 °F - 7.9 °F 84% 30.17 in 10.0 mi Calm Calm - N/A   Clear
6:15 AM 10.2 °F - 7.7 °F 90% 30.17 in 10.0 mi Calm Calm - N/A   Mostly Cloudy
6:35 AM 13.1 °F 5.4 °F 9.5 °F 86% 30.17 in 10.0 mi WSW 4.6 mph - N/A   Mostly Cloudy
6:55 AM 13.1 °F - 9.3 °F 85% 30.16 in 10.0 mi Calm Calm - N/A   Clear
7:15 AM 13.3 °F 5.6 °F 9.5 °F 85% 30.17 in 10.0 mi SW 4.6 mph - N/A   Clear
7:35 AM 14.2 °F 8.4 °F 9.9 °F 83% 30.17 in 10.0 mi WSW 3.5 mph - N/A   Clear
7:55 AM 15.1 °F - 10.4 °F 82% 30.16 in 10.0 mi Calm Calm - N/A   Clear
8:15 AM 16.2 °F 10.6 °F 10.9 °F 80% 30.16 in 10.0 mi SW 3.5 mph - N/A   Clear
8:35 AM 17.1 °F 11.7 °F 11.5 °F 79% 30.17 in 10.0 mi SW 3.5 mph - N/A   Clear
8:55 AM 17.6 °F 12.3 °F 11.7 °F 78% 30.17 in 10.0 mi SSW 3.5 mph - N/A   Clear
9:15 AM 19.8 °F 13.2 °F 12.9 °F 75% 30.17 in 10.0 mi South 4.6 mph - N/A   Clear
9:35 AM 20.7 °F - 13.6 °F 74% 30.17 in 10.0 mi Calm Calm - N/A   Clear
9:55 AM 22.1 °F - 14.0 °F 71% 30.17 in 10.0 mi Calm Calm - N/A   Clear
10:15 AM 23.5 °F 16.4 °F 13.8 °F 66% 30.17 in 10.0 mi South 5.8 mph - N/A   Clear
10:35 AM 24.8 °F 16.1 °F 14.0 °F 64% 30.16 in 10.0 mi SSW 8.1 mph - N/A   Clear
10:55 AM 25.7 °F 16.4 °F 14.7 °F 63% 30.15 in 10.0 mi SSW 9.2 mph - N/A   Clear
11:15 AM 27.3 °F 19.1 °F 15.1 °F 60% 30.13 in 10.0 mi SSW 8.1 mph - N/A   Clear
11:35 AM 28.6 °F 19.3 °F 15.3 °F 58% 30.11 in 10.0 mi South 10.4 mph - N/A   Clear
11:55 AM 29.3 °F 19.6 °F 14.4 °F 54% 30.09 in 10.0 mi South 11.5 mph 17.3 mph N/A   Clear
12:15 PM 31.1 °F 23.1 °F 14.0 °F 49% 30.08 in 10.0 mi South 9.2 mph - N/A   Clear
12:35 PM 32.0 °F 23.6 °F 14.7 °F 49% 30.06 in 10.0 mi South 10.4 mph - N/A   Clear
12:55 PM - - - N/A% - - North - - N/A   Unknown
1:35 PM 32.0 °F 23.6 °F 13.6 °F 47% 30.00 in 10.0 mi South 10.4 mph 16.1 mph N/A   Unknown
1:55 PM 32.0 °F 22.1 °F 13.8 °F 47% 29.98 in 10.0 mi South 13.8 mph 17.3 mph N/A   Clear
2:15 PM 31.6 °F 21.6 °F 13.1 °F 46% 29.97 in 10.0 mi South 13.8 mph 18.4 mph N/A   Clear
2:35 PM 32.0 °F 22.1 °F 13.1 °F 46% 29.95 in 10.0 mi South 13.8 mph 19.6 mph N/A   Clear
2:55 PM 32.0 °F 22.1 °F 12.7 °F 45% 29.92 in 10.0 mi SSE 13.8 mph 19.6 mph N/A   Clear
3:15 PM 32.2 °F 22.7 °F 12.7 °F 45% 29.92 in 10.0 mi South 12.7 mph 20.7 mph N/A   Clear
3:35 PM 32.4 °F 22.1 °F 14.0 °F 47% 29.91 in 10.0 mi South 15.0 mph 18.4 mph N/A   Clear
3:55 PM 32.2 °F 22.3 °F 15.3 °F 50% 29.90 in 10.0 mi South 13.8 mph 23.0 mph N/A   Clear
4:15 PM 31.3 °F 21.6 °F 16.7 °F 55% 29.90 in 10.0 mi South 12.7 mph 19.6 mph N/A   Clear
4:35 PM 30.7 °F 21.4 °F 17.4 °F 58% 29.90 in 10.0 mi South 11.5 mph 20.7 mph N/A   Clear
4:55 PM 30.7 °F 20.0 °F 18.1 °F 60% 29.90 in 10.0 mi South 15.0 mph 21.9 mph N/A   Clear
5:15 PM 30.7 °F 20.0 °F 18.9 °F 61% 29.90 in 10.0 mi South 15.0 mph 21.9 mph N/A   Clear
5:35 PM 30.6 °F 22.4 °F 19.6 °F 64% 29.90 in 10.0 mi SSW 9.2 mph 16.1 mph N/A   Clear
5:55 PM 31.1 °F 21.9 °F 20.8 °F 66% 29.90 in 10.0 mi SSW 11.5 mph 18.4 mph N/A   Clear
6:15 PM 30.7 °F 22.6 °F 21.2 °F 68% 29.90 in 10.0 mi SSW 9.2 mph - N/A   Clear
6:35 PM 30.4 °F 24.5 °F 21.2 °F 69% 29.91 in 10.0 mi SSW 5.8 mph - N/A   Clear
6:55 PM 30.6 °F 23.8 °F 22.1 °F 71% 29.90 in 10.0 mi SSW 6.9 mph - N/A   Clear
7:15 PM 30.7 °F 22.6 °F 22.5 °F 71% 29.90 in 10.0 mi South 9.2 mph - N/A   Clear
7:35 PM 30.7 °F 24.9 °F 22.8 °F 72% 29.89 in 10.0 mi South 5.8 mph - N/A   Clear
7:55 PM 31.3 °F 23.9 °F 23.4 °F 72% 29.89 in 10.0 mi South 8.1 mph - N/A   Clear
8:15 PM 32.0 °F 24.8 °F 23.5 °F 71% 29.89 in 10.0 mi SSW 8.1 mph - N/A   Clear
8:35 PM 32.0 °F 24.8 °F 23.9 °F 72% 29.88 in 10.0 mi SSW 8.1 mph - N/A   Clear
8:55 PM 32.2 °F 24.4 °F 24.1 °F 72% 29.87 in 10.0 mi SSW 9.2 mph - N/A   Clear
9:15 PM 32.5 °F 24.8 °F 24.8 °F 73% 29.88 in 10.0 mi SSW 9.2 mph - N/A   Clear
9:35 PM 32.4 °F 26.0 °F 25.2 °F 75% 29.87 in 10.0 mi SSW 6.9 mph - N/A   Clear
9:55 PM 32.0 °F 26.4 °F 25.3 °F 76% 29.87 in 10.0 mi South 5.8 mph - N/A   Clear
10:15 PM 32.0 °F 26.4 °F 25.7 °F 78% 29.87 in 10.0 mi South 5.8 mph - N/A   Clear
10:35 PM 32.0 °F 25.6 °F 26.2 °F 79% 29.87 in 10.0 mi SSW 6.9 mph - N/A   Clear
10:55 PM 32.4 °F 26.0 °F 27.0 °F 80% 29.86 in 10.0 mi SSW 6.9 mph - N/A   Clear
11:15 PM 33.6 °F 29.4 °F 27.5 °F 78% 29.87 in 10.0 mi SSW 4.6 mph - N/A   Clear
11:35 PM 33.1 °F 27.7 °F 27.7 °F 81% 29.86 in 10.0 mi SSW 5.8 mph - N/A   Clear
11:55 PM 33.8 °F 28.6 °F 28.4 °F 81% 29.85 in 10.0 mi SSW 5.8 mph - N/A   Clear